TimeCDT,TemperatureF,Dew PointF,Humidity,Sea Level PressureIn,VisibilityMPH,Wind Direction,Wind SpeedMPH,Gust SpeedMPH,PrecipitationIn,Events,Conditions,WindDirDegrees,DateUTC
12:56 AM,32.0,21.0,64,30.16,10.0,SW,9.2,-,N/A,,Clear,220,2012-10-07 05:56:00
1:56 AM,32.0,21.0,64,30.14,10.0,SW,8.1,-,N/A,,Clear,230,2012-10-07 06:56:00
2:56 AM,32.0,21.9,66,30.12,10.0,SW,9.2,-,N/A,,Clear,230,2012-10-07 07:56:00
3:56 AM,34.0,23.0,64,30.08,10.0,SW,12.7,-,N/A,,Clear,230,2012-10-07 08:56:00
4:56 AM,34.0,21.9,61,30.06,10.0,WSW,12.7,-,N/A,,Clear,240,2012-10-07 09:56:00
5:56 AM,33.1,21.9,64,30.04,10.0,WSW,12.7,-,N/A,,Clear,240,2012-10-07 10:56:00
6:56 AM,32.0,21.9,66,30.02,10.0,WSW,11.5,-,N/A,,Clear,240,2012-10-07 11:56:00
7:56 AM,30.9,21.9,69,30.01,10.0,WSW,9.2,-,N/A,,Overcast,240,2012-10-07 12:56:00
8:56 AM,34.0,23.0,64,29.99,10.0,WSW,8.1,-,N/A,,Overcast,240,2012-10-07 13:56:00
9:56 AM,39.9,25.0,55,29.97,10.0,WSW,12.7,-,N/A,,Mostly Cloudy,240,2012-10-07 14:56:00
10:56 AM,42.1,25.0,51,29.96,10.0,WSW,11.5,-,N/A,,Overcast,250,2012-10-07 15:56:00
11:56 AM,45.0,26.1,48,29.94,10.0,WSW,9.2,-,N/A,,Overcast,240,2012-10-07 16:56:00
12:56 PM,50.0,26.1,39,29.92,10.0,WSW,11.5,-,N/A,,Overcast,240,2012-10-07 17:56:00
1:56 PM,54.0,25.0,33,29.89,10.0,West,11.5,-,N/A,,Scattered Clouds,260,2012-10-07 18:56:00
2:56 PM,55.0,25.0,31,29.86,10.0,West,15.0,20.7,N/A,,Clear,280,2012-10-07 19:56:00
3:56 PM,55.9,26.1,32,29.85,10.0,West,9.2,-,N/A,,Clear,270,2012-10-07 20:56:00
4:56 PM,55.0,28.0,35,29.83,10.0,West,9.2,-,N/A,,Clear,270,2012-10-07 21:56:00
5:56 PM,54.0,28.0,37,29.83,10.0,NW,13.8,-,N/A,,Clear,310,2012-10-07 22:56:00
6:56 PM,46.9,30.0,52,29.83,10.0,NNW,4.6,-,N/A,,Scattered Clouds,340,2012-10-07 23:56:00
7:56 PM,46.9,30.0,52,29.83,10.0,Calm,Calm,-,N/A,,Overcast,0,2012-10-08 00:56:00
8:56 PM,42.1,30.0,62,29.82,10.0,Calm,Calm,-,N/A,,Clear,0,2012-10-08 01:56:00
9:56 PM,42.1,32.0,67,29.80,10.0,Calm,Calm,-,N/A,,Overcast,0,2012-10-08 02:56:00
10:56 PM,43.0,33.1,68,29.78,10.0,SSW,3.5,-,N/A,,Overcast,200,2012-10-08 03:56:00
11:56 PM,46.0,33.1,61,29.76,10.0,West,9.2,-,N/A,,Overcast,270,2012-10-08 04:56:00